EW2958 Weather Reports


Display with metric or nautical units.
time (UTC)temp
F
wind
direction
speed
MPH
gust
MPH
rain 1hr
in
rain 24hr
in
rain mn
in
humidity
%
barometer
mb
20260505230028 58 289 2.0 6.0 0.00 0.00 0.00 66 1019.8
20260505224627 56 346 2.0 7.0 0.00 0.00 0.00 68 1019.8
20260505223023 56 322 1.0 6.0 0.00 0.00 0.00 69 1019.8
20260505221519 55 4 3.0 8.0 0.00 0.00 0.00 71 1019.8
20260505220019 54 319 1.0 7.0 0.00 0.00 0.00 73 1019.8
20260505214514 53 325 1.0 6.0 0.00 0.00 0.00 74 1019.7
20260505213016 53 310 1.0 6.0 0.00 0.00 0.00 74 1019.8
20260505211513 53 326 3.0 10.0 0.00 0.00 0.00 73 1019.8
20260505210013 53 332 3.0 7.0 0.00 0.00 0.00 74 1019.9
20260505204608 53 349 1.0 5.0 0.00 0.00 0.00 74 1020.0
20260505203012 53 309 1.0 7.0 0.00 0.00 0.00 73 1020.0
20260505201512 53 321 2.0 8.0 0.00 0.00 0.00 74 1020.0
20260505200007 52 298 1.0 4.0 0.00 0.00 0.00 75 1020.0
20260505194503 52 264 1.0 8.0 0.00 0.00 0.00 76 1020.0
20260505193001 52 322 2.0 8.0 0.00 0.00 0.00 75 1019.9
20260505191611 52 264 2.0 6.0 0.00 0.00 0.00 76 1019.9
20260505190059 52 301 3.0 7.0 0.00 0.00 0.00 76 1019.9
20260505184558 52 325 2.0 5.0 0.00 0.00 0.00 77 1019.9
20260505183056 52 307 2.0 5.0 0.00 0.00 0.00 79 1020.0
20260505181555 52 307 1.0 5.0 0.00 0.00 0.00 79 1020.0
20260505180059 52 333 2.0 6.0 0.00 0.00 0.00 79 1020.0
20260505174552 52 323 1.0 7.0 0.00 0.00 0.00 80 1020.1
20260505173056 51 315 3.0 6.0 0.00 0.00 0.00 80 1020.3
20260505171549 52 349 3.0 8.0 0.00 0.00 0.00 80 1020.3
20260505164544 51 312 4.0 8.0 0.00 0.00 0.00 80 1020.6
20260505163043 51 333 3.0 9.0 0.00 0.00 0.00 80 1020.6
20260505161538 51 347 3.0 7.0 0.00 0.00 0.00 80 1020.7
20260505153035 51 309 0.0 2.0 0.00 0.00 0.00 82 1021.0
20260505151536 51 333 0.0 2.0 0.00 0.00 0.00 81 1021.1
20260505124511 53 269 0.0 0.0 0.00 0.00 0.00 79 1022.0
20260505123009 54 255 0.0 0.0 0.00 0.00 0.00 79 1022.0
20260505121513 54 255 0.0 0.0 0.00 0.00 0.00 78 1022.0
20260505120007 55 306 0.0 0.0 0.00 0.00 0.00 77 1022.1
20260505114508 55 306 0.0 0.0 0.00 0.00 0.00 77 1022.1
20260505113015 55 302 0.0 0.0 0.00 0.00 0.00 77 1022.1
20260505111507 55 302 0.0 0.0 0.00 0.00 0.00 76 1022.2
20260505101505 56 258 2.0 3.0 0.00 0.00 0.00 74 1022.1
20260505100005 56 285 1.0 3.0 0.00 0.00 0.00 73 1022.1
20260505094502 56 293 1.0 3.0 0.00 0.00 0.00 73 1022.1
20260505093002 57 266 2.0 5.0 0.00 0.00 0.00 72 1022.2
20260505091500 57 267 0.0 4.0 0.00 0.00 0.00 72 1022.2
20260505090107 57 262 1.0 3.0 0.00 0.00 0.00 71 1022.0
20260505084558 57 271 1.0 4.0 0.00 0.00 0.00 71 1021.9
20260505083101 57 275 1.0 5.0 0.00 0.00 0.00 70 1021.7
20260505081557 57 277 3.0 6.0 0.00 0.00 0.00 70 1021.4
20260505080055 57 274 2.0 6.0 0.00 0.00 0.00 70 1021.3
20260505074551 58 264 4.0 9.0 0.00 0.00 0.00 69 1021.2
20260505073051 58 263 4.0 9.0 0.00 0.00 0.00 68 1020.9
20260505071547 59 271 4.0 9.0 0.00 0.00 0.00 68 1020.8
20260505070046 59 293 6.0 12.0 0.00 0.00 0.00 67 1020.7
20260505064544 59 266 3.0 9.0 0.00 0.00 0.00 67 1020.6
20260505063043 59 276 5.0 10.0 0.00 0.00 0.00 66 1020.4
20260505061546 59 248 4.0 8.0 0.00 0.00 0.00 67 1020.4
20260505060040 59 272 4.0 10.0 0.00 0.00 0.00 67 1020.3
20260505054541 59 283 4.0 10.0 0.00 0.00 0.00 70 1020.2
20260505053044 59 248 2.0 7.0 0.00 0.00 0.00 71 1020.0
20260505051536 59 263 0.0 3.0 0.00 0.00 0.00 71 1019.9
20260505041525 58 238 4.0 12.0 0.00 0.00 0.00 70 1019.5
20260505040024 58 262 2.0 11.0 0.00 0.00 0.00 72 1019.5
20260505034523 58 274 8.0 17.0 0.00 0.00 0.00 70 1019.4
20260505033025 58 274 9.0 15.0 0.00 0.00 0.00 69 1019.4
20260505031521 58 285 7.0 15.0 0.00 0.00 0.00 70 1019.4
20260505030027 58 267 5.0 13.0 0.00 0.00 0.00 69 1019.5
20260505024520 58 271 5.0 15.0 0.00 0.00 0.00 68 1019.5
20260505023021 58 257 10.0 19.0 0.00 0.00 0.00 66 1019.5
20260505021518 58 251 5.0 15.0 0.00 0.00 0.00 66 1019.7
20260505020017 58 264 4.0 16.0 0.00 0.00 0.00 65 1019.9
20260505014516 58 319 4.0 15.0 0.00 0.00 0.00 65 1019.8
20260505013013 58 256 6.0 15.0 0.00 0.00 0.00 64 1019.9
20260505011514 58 231 5.0 15.0 0.00 0.00 0.00 65 1019.9
20260505010008 58 269 7.0 16.0 0.00 0.00 0.00 65 1019.9
20260505004518 57 283 6.0 17.0 0.00 0.00 0.00 65 1019.8
20260505003003 56 275 10.0 20.0 0.00 0.00 0.00 67 1019.8
20260505001600 56 287 7.0 20.0 0.00 0.00 0.00 70 1019.7
20260504234615 56 271 10.0 23.0 0.00 0.00 0.00 70 1019.4
20260504233053 56 267 10.0 23.0 0.00 0.00 0.00 70 1019.2
20260504231555 55 287 13.0 20.0 0.00 0.00 0.00 72 1019.1